timestamp,surface_pressure_avg,surface_temp_avg,battery_voltage,lat,long
2023-11-23 00:09:01+00:00,224.5997,6.9,12.09,47.84626,-54.09684
2023-11-23 00:19:00+00:00,218.5731,6.9,12.09,47.84626,-54.09684
2023-11-23 00:29:00+00:00,217.4348,6.9,12.09,47.84626,-54.09684
2023-11-23 00:39:00+00:00,231.4748,6.89,12.09,47.84626,-54.09684
2023-11-23 00:49:00+00:00,231.7898,6.8,12.09,47.84626,-54.09684
2023-11-23 00:59:00+00:00,218.7964,6.8,12.09,47.84626,-54.09684
2023-11-23 01:09:00+00:00,213.3665,6.8,12.09,47.84626,-54.09684
2023-11-23 01:19:00+00:00,216.3615,6.8,12.09,47.84626,-54.09684
2023-11-23 01:29:00+00:00,210.9764,6.8,12.09,47.84626,-54.09684
2023-11-23 01:39:00+00:00,198.3031,6.71,12.09,47.84626,-54.09684
2023-11-23 01:49:00+00:00,199.0648,6.7,12.09,47.84626,-54.09684
2023-11-23 01:59:00+00:00,209.3064,6.7,12.09,47.84626,-54.09684
2023-11-23 02:09:00+00:00,208.0348,6.76,12.09,47.84626,-54.09684
2023-11-23 02:19:00+00:00,207.3214,6.7,12.01,47.84626,-54.09684
2023-11-23 02:29:00+00:00,220.9298,6.7,12.01,47.84626,-54.09684
2023-11-23 02:39:00+00:00,227.1731,6.7,12.01,47.84626,-54.09684
2023-11-23 02:49:00+00:00,222.7647,6.7,12.01,47.84626,-54.09684
2023-11-23 02:59:00+00:00,221.6431,6.68,12.01,47.84626,-54.09684
2023-11-23 03:09:00+00:00,226.2214,6.66,12.01,47.84626,-54.09684
2023-11-23 03:19:01+00:00,223.8398,6.65,12.01,47.84626,-54.09684
2023-11-23 03:29:01+00:00,222.7164,6.6,12.01,47.84626,-54.09684
2023-11-23 03:39:01+00:00,221.3048,6.6,12.01,47.84626,-54.09684
2023-11-23 03:49:01+00:00,217.3965,6.6,12.01,47.84626,-54.09684
2023-11-23 03:59:01+00:00,222.8748,6.6,12.01,47.84626,-54.09684
2023-11-23 04:09:01+00:00,242.6114,6.6,12.01,47.84626,-54.09684
2023-11-23 04:19:00+00:00,249.7614,6.65,12.01,47.84626,-54.09684
2023-11-23 04:29:00+00:00,250.0531,6.78,12.01,47.84626,-54.09684
2023-11-23 04:39:00+00:00,261.7981,7.05,12.01,47.84626,-54.09684
2023-11-23 04:49:00+00:00,272.3881,7.21,12.01,47.84626,-54.09684
2023-11-23 04:59:00+00:00,269.5664,7.2,12.01,47.84626,-54.09684
2023-11-23 05:09:00+00:00,269.0431,7.0,12.01,47.84626,-54.09684
2023-11-23 05:19:00+00:00,278.5798,7.09,12.01,47.84626,-54.09684
2023-11-23 05:29:00+00:00,282.1346,7.2,12.01,47.84626,-54.09684
2023-11-23 05:39:00+00:00,282.2064,7.2,12.01,47.84626,-54.09684
2023-11-23 05:49:00+00:00,292.4197,7.2,12.01,47.84626,-54.09684
2023-11-23 05:59:00+00:00,303.6395,7.3,12.01,47.84626,-54.09684
2023-11-23 06:09:00+00:00,303.6396,7.3,12.01,47.84626,-54.09684
2023-11-23 06:19:00+00:00,305.4514,7.2,12.01,47.84626,-54.09684
2023-11-23 06:29:00+00:00,316.6364,7.23,12.01,47.84626,-54.09684
2023-11-23 06:39:00+00:00,322.8262,7.26,12.01,47.84626,-54.09684
2023-11-23 06:49:00+00:00,322.9196,7.22,12.01,47.84626,-54.09684
2023-11-23 06:59:00+00:00,326.003,7.2,12.01,47.84626,-54.09684
2023-11-23 07:09:00+00:00,334.4496,7.2,12.01,47.84626,-54.09684
2023-11-23 07:19:00+00:00,337.55300000000005,7.14,12.01,47.84626,-54.09684
2023-11-23 07:29:00+00:00,333.1847,7.1,12.01,47.84626,-54.09684
2023-11-23 07:39:00+00:00,337.6295,7.12,12.01,47.84626,-54.09684
2023-11-23 07:49:00+00:00,343.0612,7.2,12.01,47.84626,-54.09684
2023-11-23 07:59:00+00:00,342.2146,7.19,12.01,47.84626,-54.09684
2023-11-23 08:09:00+00:00,349.8846,7.1,12.01,47.84626,-54.09684
2023-11-23 08:19:00+00:00,350.3579,7.17,12.01,47.84626,-54.09684
2023-11-23 08:29:00+00:00,343.408,7.2,12.01,47.84626,-54.09684
2023-11-23 08:39:00+00:00,338.7696,7.2,12.01,47.84626,-54.09684
2023-11-23 08:49:00+00:00,344.4913,7.2,12.01,47.84626,-54.09684
2023-11-23 08:59:00+00:00,341.7496,7.21,12.01,47.84626,-54.09684
2023-11-23 09:09:00+00:00,335.1646,7.2,12.01,47.84626,-54.09684
2023-11-23 09:19:00+00:00,340.4946,7.27,12.01,47.84626,-54.09684
2023-11-23 09:29:00+00:00,338.1863,7.3,12.01,47.84626,-54.09684
2023-11-23 09:39:00+00:00,326.878,7.29,12.01,47.84626,-54.09684
2023-11-23 09:49:00+00:00,322.3596,7.2,12.01,47.84626,-54.09684
2023-11-23 09:59:00+00:00,321.0529,7.2,12.01,47.84626,-54.09684
2023-11-23 10:09:00+00:00,315.8897,7.2,12.01,47.84626,-54.09684
2023-11-23 10:19:00+00:00,310.813,7.2,12.01,47.84626,-54.09684
2023-11-23 10:29:00+00:00,302.6047,7.2,12.01,47.84626,-54.09684
2023-11-23 10:39:00+00:00,297.9047,7.1,12.01,47.84626,-54.09684
2023-11-23 10:49:00+00:00,295.6714,7.1,12.01,47.84626,-54.09684
2023-11-23 10:59:00+00:00,294.4064,7.19,12.01,47.84626,-54.09684
2023-11-23 11:09:00+00:00,285.4263,7.3,12.01,47.84626,-54.09684
2023-11-23 11:19:00+00:00,274.8814,7.2,12.09,47.84626,-54.09684
2023-11-23 11:29:00+00:00,271.988,6.87,12.09,47.84626,-54.09684
2023-11-23 11:39:00+00:00,267.8331,7.1,12.09,47.84626,-54.09684
2023-11-23 11:49:00+00:00,256.9414,7.13,12.09,47.84626,-54.09684
2023-11-23 11:59:00+00:00,244.6931,7.1,12.09,47.84626,-54.09684
2023-11-23 12:09:00+00:00,246.4181,7.16,12.09,47.84626,-54.09684
2023-11-23 12:19:00+00:00,247.1831,7.2,12.65,47.84626,-54.09684
2023-11-23 12:29:00+00:00,236.0131,7.2,12.65,47.84626,-54.09684
2023-11-23 12:39:00+00:00,232.2831,7.06,12.65,47.84626,-54.09684
2023-11-23 12:49:00+00:00,243.8464,7.0,12.65,47.84626,-54.09684
2023-11-23 12:59:00+00:00,241.5247,6.9,12.65,47.84626,-54.09684
2023-11-23 13:09:00+00:00,225.8081,6.35,12.65,47.84626,-54.09684
2023-11-23 13:19:00+00:00,222.6064,6.27,12.81,47.84626,-54.09684
2023-11-23 13:29:00+00:00,227.5281,6.4,12.81,47.84626,-54.09684
2023-11-23 13:39:00+00:00,220.2981,6.51,12.81,47.84626,-54.09684
2023-11-23 13:49:00+00:00,205.6215,6.4,12.81,47.84626,-54.09684
2023-11-23 13:59:00+00:00,204.8814,6.34,12.81,47.84626,-54.09684
2023-11-23 14:09:00+00:00,212.0481,6.49,12.81,47.84626,-54.09684
2023-11-23 14:19:00+00:00,207.5598,6.57,12.57,47.84626,-54.09684
2023-11-23 14:29:00+00:00,199.9064,6.46,12.57,47.84626,-54.09684
2023-11-23 14:39:00+00:00,203.2614,6.57,12.57,47.84626,-54.09684
2023-11-23 14:49:00+00:00,210.6248,6.7,12.57,47.84626,-54.09684
2023-11-23 14:59:00+00:00,205.6614,6.8,12.57,47.84626,-54.09684
2023-11-23 15:09:00+00:00,207.4764,6.8,12.57,47.84626,-54.09684
2023-11-23 15:19:00+00:00,221.3665,6.9,12.49,47.84626,-54.09684
2023-11-23 15:29:00+00:00,220.5414,7.03,12.49,47.84626,-54.09684
2023-11-23 15:39:00+00:00,217.1147,7.06,12.49,47.84626,-54.09684
2023-11-23 15:49:00+00:00,227.0414,7.1,12.49,47.84626,-54.09684
2023-11-23 15:59:00+00:00,235.9981,7.19,12.49,47.84626,-54.09684
2023-11-23 16:09:00+00:00,237.1579,7.27,12.49,47.84626,-54.09684
2023-11-23 16:19:00+00:00,239.4464,7.3,12.57,47.84626,-54.09684
2023-11-23 16:29:00+00:00,246.3714,7.33,12.57,47.84626,-54.09684
2023-11-23 16:39:00+00:00,249.3131,7.39,12.57,47.84626,-54.09684
2023-11-23 16:49:00+00:00,250.1913,7.4,12.57,47.84626,-54.09684
2023-11-23 16:59:00+00:00,258.3997,7.32,12.57,47.84626,-54.09684
2023-11-23 17:09:00+00:00,271.0514,7.31,12.57,47.84626,-54.09684
2023-11-23 17:19:00+00:00,273.388,7.39,12.49,47.84626,-54.09684
2023-11-23 17:29:00+00:00,268.7347,7.4,12.49,47.84626,-54.09684
2023-11-23 17:39:00+00:00,279.8064,7.4,12.49,47.84626,-54.09684
2023-11-23 17:49:00+00:00,294.1747,7.39,12.49,47.84626,-54.09684
2023-11-23 17:59:00+00:00,294.0214,7.37,12.49,47.84626,-54.09684
2023-11-23 18:09:00+00:00,292.6647,7.26,12.49,47.84626,-54.09684
2023-11-23 18:19:00+00:00,306.6447,7.22,12.33,47.84626,-54.09684
2023-11-23 18:29:00+00:00,315.9613,7.27,12.33,47.84626,-54.09684
2023-11-23 18:39:00+00:00,314.08299999999997,7.3,12.33,47.84626,-54.09684
2023-11-23 18:49:00+00:00,319.5264,7.4,12.33,47.84626,-54.09684
2023-11-23 18:59:00+00:00,332.6047,7.47,12.33,47.84626,-54.09684
2023-11-23 19:09:00+00:00,335.4546,7.4,12.33,47.84626,-54.09684
2023-11-23 19:19:01+00:00,339.9113,7.4,12.25,47.84626,-54.09684
2023-11-23 19:29:01+00:00,348.9612,7.4,12.25,47.84626,-54.09684
2023-11-23 19:39:01+00:00,350.8362,7.4,12.25,47.84626,-54.09684
2023-11-23 19:49:01+00:00,346.1012,7.45,12.25,47.84626,-54.09684
2023-11-23 19:59:01+00:00,349.3297,7.5,12.25,47.84626,-54.09684
2023-11-23 20:09:01+00:00,350.723,7.5,12.25,47.84626,-54.09684
2023-11-23 20:19:00+00:00,342.5847,7.4,12.25,47.84626,-54.09684
2023-11-23 20:29:00+00:00,346.31300000000016,7.4,12.25,47.84626,-54.09684
2023-11-23 20:39:00+00:00,357.7763,7.4,12.25,47.84626,-54.09684
2023-11-23 20:49:00+00:00,356.5914,7.3,12.25,47.84626,-54.09684
2023-11-23 20:59:00+00:00,352.62800000000016,7.2,12.25,47.84626,-54.09684
2023-11-23 21:09:00+00:00,361.0929,7.2,12.25,47.84626,-54.09684
2023-11-23 21:19:01+00:00,364.9662,7.24,12.17,47.84626,-54.09684
2023-11-23 21:29:01+00:00,358.2962,7.3,12.17,47.84626,-54.09684
2023-11-23 21:39:01+00:00,358.093,7.3,12.17,47.84626,-54.09684
2023-11-23 21:49:01+00:00,361.3647,7.29,12.17,47.84626,-54.09684
2023-11-23 21:59:01+00:00,353.2663,7.24,12.17,47.84626,-54.09684
2023-11-23 22:09:01+00:00,344.2697,7.2,12.17,47.84626,-54.09684
2023-11-23 22:19:01+00:00,347.1513,7.19,12.17,47.84626,-54.09684
2023-11-23 22:29:01+00:00,344.1429,7.1,12.17,47.84626,-54.09684
2023-11-23 22:39:01+00:00,334.1213,7.1,12.17,47.84626,-54.09684
2023-11-23 22:49:01+00:00,333.8463,7.11,12.17,47.84626,-54.09684
2023-11-23 22:59:01+00:00,330.2547,7.1,12.17,47.84626,-54.09684
2023-11-23 23:09:01+00:00,321.0463,7.09,12.17,47.84626,-54.09684
2023-11-23 23:19:00+00:00,312.9246,7.11,12.17,47.84626,-54.09684
2023-11-23 23:29:00+00:00,307.528,7.19,12.17,47.84626,-54.09684
2023-11-23 23:39:00+00:00,292.0847,7.18,12.17,47.84626,-54.09684
2023-11-23 23:49:00+00:00,281.1564,7.19,12.17,47.84626,-54.09684
2023-11-23 23:59:00+00:00,271.3981,7.2,12.17,47.84626,-54.09684
